DECAYED

OBJECT E, 44842 (Decayed)

Orbit data source: Space-Track

You're viewing an Uncataloged Satellite

Recently launched and/or uncataloged satellites may have evolving metadata. Metadata may include but not limited to: Owner, Maufacturer, Bus, Motor, and Mission.

OBJECT E, 44842 was a satellite owned by Guodian Gaokeji (CN) in LEO that was launched on Sat, 07 Dec 2019 UTC via a KUAIZHOU-1A launch vehicle from the Taiyaun Space Center, China (TSC). Unknown objects in Earth's orbit typically refer to objects detected orbiting the Earth but have not yet been identified or cataloged. These objects could be anything from previously untracked satellites, spent rocket stages, debris from satellite collisions, or even natural meteoroids temporarily captured by Earth's gravity. This object's orbit decayed before it could be identified.

Not visible in the next 10 days
Identifier
44842, 2019-087E
Orbit
Decayed
Country
Flag of CNCN / PRC
Related business
Manufacturer
GUOG?
Mission
Decayed Commercial Imaging
Bus & Motor
CUBESAT 6U?, Unknown motor
Mass
8 kg wet, 8 kg dry
Launch date (UTC)
2019-12-07 (6 years ago)
Launch vehicle
KUAIZHOU-1A
Launch site
Taiyaun Space Center, China (TSC)
Object type
Unknown
Shape & HBR
Box, 0.1 m
Radar Cross Section
0.080 m², Medium (>0.1 m² and < 1m²)

Expand to show TLE details & history
Last TLE update: 1 year ago

TLE from 1 year ago
0 OBJECT E
1 44842U 19087E   24091.02873833  .07848714  25368-5  16623-2 0  9995
2 44842  97.4763 279.3477 0007439 271.5628  88.4815 16.30832210241101
Epoch: 2024-03-31T00:41Z
TLE epoch observation values (Epoch: 2024-03-31T00:41:22.991Z)
Latitude
0.00004°
Longitude
80.11268°
Altitude
193.415 km
Speed
7.79 km/s
True Right ascension
18h 37m 23s
True Declination
0° 00' 00"
Sunlit
Object was in daylight at epoch
Visualization orbit readout
Latitude
Unknown
Longitude
Unknown
Altitude
Unknown
Speed
Unknown
Apparent Right ascension
Unknown
Apparent Declination
Unknown
Sunlit
N/A
Visualization observer readout
Local Sidereal Time
16:47:09
Azimuth
Unknown
Elevation
Unknown
Doppler factor
Unknown
Orbital elements
Apogee altitude
192.011 km
Perigee altitude
182.243 km
Semi-major axis
6,565.264 km
Eccentricity
0.00074
Inclination
97.4763°
RAAN
279.3477°
Arg. of periapsis
271.5628°
True anomaly
88.56672°
Mean anomaly
88.4815°
Eccentric anomaly
88.52411°
Mean motion
4.08004 °/min
Orbital period
88.23 mins
BSTAR
0.0016623
Loading maneuver chart data...
Computing Atmospheric mass density...
Loading historical data...
Loading historical data...
Loading historical data...
Loading historical data...
Loading historical data...
Loading historical data...
Loading historical data...

Documentation

Showing up to 5 results
|